| time (UTC) | temp F | wind direction | speed MPH | gust MPH | rain 1hr in | rain 24hr in | rain mn in | humidity % | barometer mb |
| 20260504150958 | 67 | 182 | 3.0 | 3.0 | 0.00 | 0.00 | 0.00 | 59 | 1019.6 |
| 20260504150455 | 66 | 247 | 7.0 | 8.0 | 0.00 | 0.00 | 0.00 | 55 | 1019.6 |
| 20260504140921 | 61 | 261 | 7.0 | 8.0 | 0.00 | 0.00 | 0.00 | 62 | 1020.2 |
| 20260504140418 | 61 | 252 | 4.0 | 5.0 | 0.00 | 0.00 | 0.00 | 62 | 1020.1 |
| 20260504130343 | 57 | 250 | 0.0 | 0.0 | 0.00 | 0.00 | 0.00 | 77 | 1019.9 |
| 20260504120306 | 42 | 268 | 0.0 | 0.0 | 0.00 | 0.00 | 0.00 | 99 | 1019.7 |
| 20260504110230 | 40 | 271 | 0.0 | 0.0 | 0.00 | 0.00 | 0.00 | 99 | 1019.2 |
| 20260504100154 | 39 | 273 | 0.0 | 0.0 | 0.00 | 0.00 | 0.00 | 99 | 1019.0 |
| 20260504090116 | 41 | 273 | 0.0 | 0.0 | 0.00 | 0.00 | 0.00 | 99 | 1019.1 |
| 20260504081546 | 41 | 273 | 0.0 | 0.0 | 0.00 | 0.00 | 0.00 | 99 | 1019.2 |
| 20260504081042 | 41 | 273 | 0.0 | 0.0 | 0.00 | 0.00 | 0.00 | 99 | 1018.9 |
| 20260504080539 | 41 | 273 | 0.0 | 0.0 | 0.00 | 0.00 | 0.00 | 99 | 1019.0 |
| 20260504050352 | 45 | 276 | 0.0 | 0.0 | 0.00 | 0.00 | 0.00 | 95 | 1020.1 |
| 20260504045850 | 45 | 276 | 0.0 | 0.0 | 0.00 | 0.00 | 0.00 | 95 | 1020.1 |
| 20260504045350 | 45 | 276 | 0.0 | 0.0 | 0.00 | 0.00 | 0.00 | 94 | 1020.2 |
| 20260504044847 | 45 | 278 | 0.0 | 0.0 | 0.00 | 0.00 | 0.00 | 94 | 1020.0 |
| 20260504044344 | 45 | 271 | 0.0 | 0.0 | 0.00 | 0.00 | 0.00 | 94 | 1020.3 |
| 20260504043841 | 45 | 270 | 0.0 | 0.0 | 0.00 | 0.00 | 0.00 | 94 | 1020.3 |
| 20260504043338 | 45 | 270 | 0.0 | 0.0 | 0.00 | 0.00 | 0.00 | 95 | 1020.3 |
| 20260504042835 | 45 | 271 | 0.0 | 0.0 | 0.00 | 0.00 | 0.00 | 95 | 1020.4 |
| 20260504042332 | 44 | 266 | 0.0 | 0.0 | 0.00 | 0.00 | 0.00 | 95 | 1020.4 |
| 20260504041828 | 44 | 269 | 0.0 | 0.0 | 0.00 | 0.00 | 0.00 | 95 | 1020.5 |
| 20260504041324 | 45 | 268 | 0.0 | 0.0 | 0.00 | 0.00 | 0.00 | 94 | 1020.8 |
| 20260504040821 | 45 | 274 | 0.0 | 0.0 | 0.00 | 0.00 | 0.00 | 94 | 1020.5 |
| 20260504040319 | 45 | 274 | 0.0 | 0.0 | 0.00 | 0.00 | 0.00 | 94 | 1020.5 |
| 20260504035814 | 46 | 274 | 0.0 | 0.0 | 0.00 | 0.00 | 0.00 | 93 | 1020.5 |
| 20260504035312 | 47 | 280 | 0.0 | 0.0 | 0.00 | 0.00 | 0.00 | 93 | 1020.7 |
| 20260504034809 | 46 | 283 | 0.0 | 0.0 | 0.00 | 0.00 | 0.00 | 92 | 1020.6 |
| 20260504034306 | 46 | 271 | 0.0 | 0.0 | 0.00 | 0.00 | 0.00 | 91 | 1020.5 |
| 20260504033803 | 47 | 271 | 0.0 | 0.0 | 0.00 | 0.00 | 0.00 | 91 | 1020.5 |
| 20260504033301 | 46 | 271 | 0.0 | 0.0 | 0.00 | 0.00 | 0.00 | 91 | 1020.5 |
| 20260504032757 | 47 | 271 | 0.0 | 0.0 | 0.00 | 0.00 | 0.00 | 90 | 1020.5 |
| 20260504032254 | 47 | 271 | 0.0 | 0.0 | 0.00 | 0.00 | 0.00 | 90 | 1020.3 |
| 20260504031751 | 47 | 271 | 0.0 | 0.0 | 0.00 | 0.00 | 0.00 | 90 | 1020.7 |
| 20260504031249 | 47 | 270 | 0.0 | 0.0 | 0.00 | 0.00 | 0.00 | 89 | 1020.5 |
| 20260504030744 | 48 | 271 | 0.0 | 0.0 | 0.00 | 0.00 | 0.00 | 88 | 1020.5 |
| 20260504030242 | 48 | 270 | 0.0 | 0.0 | 0.00 | 0.00 | 0.00 | 87 | 1020.6 |
| 20260504025738 | 48 | 270 | 0.0 | 0.0 | 0.00 | 0.00 | 0.00 | 86 | 1020.5 |
| 20260504025235 | 49 | 271 | 0.0 | 0.0 | 0.00 | 0.00 | 0.00 | 85 | 1020.5 |
| 20260504024732 | 50 | 271 | 0.0 | 0.0 | 0.00 | 0.00 | 0.00 | 84 | 1020.3 |
| 20260504024229 | 49 | 271 | 0.0 | 0.0 | 0.00 | 0.00 | 0.00 | 83 | 1020.4 |
| 20260504023726 | 49 | 271 | 0.0 | 0.0 | 0.00 | 0.00 | 0.00 | 84 | 1020.5 |
| 20260504023221 | 49 | 270 | 0.0 | 0.0 | 0.00 | 0.00 | 0.00 | 85 | 1020.4 |
| 20260504022718 | 49 | 270 | 0.0 | 0.0 | 0.00 | 0.00 | 0.00 | 86 | 1020.2 |
| 20260504022214 | 49 | 270 | 0.0 | 0.0 | 0.00 | 0.00 | 0.00 | 86 | 1020.2 |
| 20260504021712 | 50 | 270 | 0.0 | 0.0 | 0.00 | 0.00 | 0.00 | 85 | 1020.2 |
| 20260504021209 | 51 | 270 | 0.0 | 0.0 | 0.00 | 0.00 | 0.00 | 81 | 1020.0 |
| 20260504020706 | 51 | 271 | 0.0 | 0.0 | 0.00 | 0.00 | 0.00 | 80 | 1020.1 |
| 20260504020201 | 51 | 271 | 0.0 | 0.0 | 0.00 | 0.00 | 0.00 | 79 | 1020.0 |
| 20260504015658 | 52 | 271 | 0.0 | 0.0 | 0.00 | 0.00 | 0.00 | 78 | 1019.7 |
| 20260504015154 | 52 | 271 | 0.0 | 0.0 | 0.00 | 0.00 | 0.00 | 77 | 1019.7 |
| 20260504014650 | 53 | 271 | 0.0 | 0.0 | 0.00 | 0.00 | 0.00 | 76 | 1019.7 |
| 20260504014148 | 54 | 276 | 0.0 | 0.0 | 0.00 | 0.00 | 0.00 | 73 | 1019.9 |
| 20260504013645 | 54 | 291 | 0.0 | 1.0 | 0.00 | 0.00 | 0.00 | 75 | 1019.7 |
| 20260504013142 | 53 | 272 | 0.0 | 0.0 | 0.00 | 0.00 | 0.00 | 74 | 1019.6 |
| 20260504012639 | 54 | 272 | 0.0 | 0.0 | 0.00 | 0.00 | 0.00 | 73 | 1019.5 |
| 20260504012137 | 53 | 272 | 0.0 | 0.0 | 0.00 | 0.00 | 0.00 | 74 | 1019.4 |
| 20260504011633 | 53 | 272 | 0.0 | 0.0 | 0.00 | 0.00 | 0.00 | 72 | 1019.6 |
| 20260504011130 | 54 | 265 | 0.0 | 0.0 | 0.00 | 0.00 | 0.00 | 73 | 1019.3 |
| 20260504010626 | 54 | 265 | 0.0 | 0.0 | 0.00 | 0.00 | 0.00 | 68 | 1019.1 |
| 20260504010122 | 55 | 264 | 0.0 | 0.0 | 0.00 | 0.00 | 0.00 | 71 | 1019.2 |
| 20260504005619 | 56 | 263 | 0.0 | 0.0 | 0.00 | 0.00 | 0.00 | 67 | 1019.3 |
| 20260504005116 | 57 | 265 | 0.0 | 0.0 | 0.00 | 0.00 | 0.00 | 63 | 1019.1 |
| 20260504004614 | 58 | 266 | 0.0 | 0.0 | 0.00 | 0.00 | 0.00 | 62 | 1019.3 |
| 20260504004111 | 58 | 266 | 0.0 | 0.0 | 0.00 | 0.00 | 0.00 | 59 | 1019.0 |
| 20260504003607 | 59 | 267 | 0.0 | 0.0 | 0.00 | 0.00 | 0.00 | 57 | 1018.9 |
| 20260504003103 | 59 | 267 | 0.0 | 0.0 | 0.00 | 0.00 | 0.00 | 55 | 1019.1 |
| 20260504002600 | 60 | 272 | 0.0 | 0.0 | 0.00 | 0.00 | 0.00 | 55 | 1019.1 |
| 20260504002058 | 60 | 202 | 0.0 | 0.0 | 0.00 | 0.00 | 0.00 | 54 | 1019.0 |
| 20260504001555 | 61 | 271 | 0.0 | 0.0 | 0.00 | 0.00 | 0.00 | 52 | 1019.1 |
| 20260504001051 | 61 | 267 | 0.0 | 0.0 | 0.00 | 0.00 | 0.00 | 51 | 1019.0 |
| 20260504000549 | 62 | 271 | 0.0 | 0.0 | 0.00 | 0.00 | 0.00 | 51 | 1019.0 |
| 20260504000046 | 62 | 271 | 1.0 | 1.0 | 0.00 | 0.00 | 0.00 | 50 | 1019.0 |
| 20260503235544 | 62 | 266 | 1.0 | 1.0 | 0.00 | 0.00 | 0.00 | 49 | 1019.0 |
| 20260503235041 | 63 | 266 | 2.0 | 2.0 | 0.00 | 0.00 | 0.00 | 48 | 1018.9 |
| 20260503234538 | 64 | 264 | 1.0 | 2.0 | 0.00 | 0.00 | 0.00 | 47 | 1019.1 |
| 20260503234037 | 64 | 263 | 2.0 | 2.0 | 0.00 | 0.00 | 0.00 | 46 | 1019.1 |
| 20260503233533 | 64 | 269 | 1.0 | 1.0 | 0.00 | 0.00 | 0.00 | 46 | 1019.0 |
| 20260503233029 | 64 | 269 | 1.0 | 2.0 | 0.00 | 0.00 | 0.00 | 46 | 1019.1 |
| 20260503232526 | 65 | 260 | 2.0 | 3.0 | 0.00 | 0.00 | 0.00 | 47 | 1019.0 |
| 20260503232023 | 65 | 261 | 0.0 | 0.0 | 0.00 | 0.00 | 0.00 | 46 | 1019.0 |
| 20260503231521 | 65 | 273 | 2.0 | 2.0 | 0.00 | 0.00 | 0.00 | 46 | 1019.0 |
| 20260503231018 | 65 | 242 | 4.0 | 6.0 | 0.00 | 0.00 | 0.00 | 44 | 1019.1 |
| 20260503230514 | 66 | 275 | 1.0 | 1.0 | 0.00 | 0.00 | 0.00 | 44 | 1019.0 |
| 20260503230012 | 66 | 261 | 3.0 | 3.0 | 0.00 | 0.00 | 0.00 | 44 | 1019.2 |
| 20260503225509 | 66 | 262 | 3.0 | 3.0 | 0.00 | 0.00 | 0.00 | 44 | 1019.1 |
| 20260503225004 | 66 | 252 | 4.0 | 6.0 | 0.00 | 0.00 | 0.00 | 44 | 1019.0 |
| 20260503224501 | 66 | 254 | 2.0 | 2.0 | 0.00 | 0.00 | 0.00 | 44 | 1018.9 |
| 20260503223959 | 67 | 255 | 4.0 | 5.0 | 0.00 | 0.00 | 0.00 | 41 | 1019.0 |
| 20260503223457 | 67 | 245 | 5.0 | 7.0 | 0.00 | 0.00 | 0.00 | 40 | 1018.9 |
| 20260503222952 | 67 | 258 | 3.0 | 3.0 | 0.00 | 0.00 | 0.00 | 41 | 1019.1 |
| 20260503222451 | 67 | 249 | 3.0 | 5.0 | 0.00 | 0.00 | 0.00 | 41 | 1019.1 |
| 20260503221948 | 67 | 302 | 1.0 | 2.0 | 0.00 | 0.00 | 0.00 | 41 | 1019.1 |
| 20260503221446 | 67 | 358 | 2.0 | 2.0 | 0.00 | 0.00 | 0.00 | 42 | 1019.0 |
| 20260503220943 | 68 | 19 | 2.0 | 2.0 | 0.00 | 0.00 | 0.00 | 41 | 1019.0 |
| 20260503220439 | 68 | 322 | 2.0 | 2.0 | 0.00 | 0.00 | 0.00 | 41 | 1019.1 |
| 20260503215936 | 68 | 258 | 3.0 | 5.0 | 0.00 | 0.00 | 0.00 | 40 | 1019.1 |
| 20260503215433 | 68 | 284 | 1.0 | 1.0 | 0.00 | 0.00 | 0.00 | 41 | 1019.1 |
| 20260503214931 | 68 | 288 | 0.0 | 0.0 | 0.00 | 0.00 | 0.00 | 41 | 1019.1 |
| 20260503214429 | 68 | 279 | 0.0 | 0.0 | 0.00 | 0.00 | 0.00 | 40 | 1019.1 |
| 20260503213926 | 68 | 295 | 0.0 | 0.0 | 0.00 | 0.00 | 0.00 | 38 | 1019.3 |
| 20260503213424 | 68 | 295 | 1.0 | 1.0 | 0.00 | 0.00 | 0.00 | 39 | 1019.3 |
| 20260503212920 | 69 | 246 | 3.0 | 3.0 | 0.00 | 0.00 | 0.00 | 38 | 1019.3 |
| 20260503212417 | 69 | 293 | 3.0 | 5.0 | 0.00 | 0.00 | 0.00 | 38 | 1019.2 |
| 20260503211915 | 70 | 285 | 0.0 | 0.0 | 0.00 | 0.00 | 0.00 | 39 | 1019.2 |
| 20260503211412 | 69 | 282 | 1.0 | 2.0 | 0.00 | 0.00 | 0.00 | 43 | 1019.3 |
| 20260503210907 | 70 | 268 | 3.0 | 3.0 | 0.00 | 0.00 | 0.00 | 39 | 1019.2 |
| 20260503210405 | 69 | 262 | 1.0 | 2.0 | 0.00 | 0.00 | 0.00 | 42 | 1019.3 |
| 20260503205904 | 69 | 280 | 2.0 | 2.0 | 0.00 | 0.00 | 0.00 | 42 | 1019.5 |
| 20260503205402 | 68 | 274 | 2.0 | 2.0 | 0.00 | 0.00 | 0.00 | 41 | 1019.4 |
| 20260503204858 | 69 | 258 | 5.0 | 6.0 | 0.00 | 0.00 | 0.00 | 41 | 1019.3 |
| 20260503204356 | 69 | 234 | 5.0 | 8.0 | 0.00 | 0.00 | 0.00 | 39 | 1019.4 |
| 20260503203853 | 70 | 297 | 5.0 | 7.0 | 0.00 | 0.00 | 0.00 | 40 | 1019.3 |
| 20260503203350 | 70 | 306 | 0.0 | 0.0 | 0.00 | 0.00 | 0.00 | 38 | 1019.5 |
| 20260503202847 | 70 | 280 | 0.0 | 0.0 | 0.00 | 0.00 | 0.00 | 38 | 1019.6 |
| 20260503202345 | 69 | 320 | 2.0 | 3.0 | 0.00 | 0.00 | 0.00 | 38 | 1019.7 |
| 20260503201843 | 70 | 290 | 1.0 | 2.0 | 0.00 | 0.00 | 0.00 | 39 | 1020.0 |
| 20260503201340 | 69 | 314 | 2.0 | 2.0 | 0.00 | 0.00 | 0.00 | 43 | 1019.7 |
| 20260503200837 | 69 | 265 | 4.0 | 5.0 | 0.00 | 0.00 | 0.00 | 43 | 1019.9 |
| 20260503200332 | 69 | 262 | 3.0 | 3.0 | 0.00 | 0.00 | 0.00 | 41 | 1020.0 |
| 20260503195830 | 68 | 267 | 0.0 | 0.0 | 0.00 | 0.00 | 0.00 | 48 | 1020.0 |
| 20260503195327 | 68 | 272 | 1.0 | 2.0 | 0.00 | 0.00 | 0.00 | 43 | 1020.2 |
| 20260503194824 | 69 | 352 | 6.0 | 7.0 | 0.00 | 0.00 | 0.00 | 42 | 1020.2 |
| 20260503194320 | 69 | 298 | 0.0 | 0.0 | 0.00 | 0.00 | 0.00 | 49 | 1020.4 |
| 20260503193816 | 69 | 296 | 3.0 | 3.0 | 0.00 | 0.00 | 0.00 | 47 | 1020.3 |
| 20260503193312 | 68 | 262 | 2.0 | 2.0 | 0.00 | 0.00 | 0.00 | 45 | 1020.6 |
| 20260503192808 | 69 | 262 | 5.0 | 5.0 | 0.00 | 0.00 | 0.00 | 43 | 1020.8 |
| 20260503192305 | 68 | 276 | 1.0 | 2.0 | 0.00 | 0.00 | 0.00 | 44 | 1020.6 |
| 20260503191800 | 68 | 287 | 0.0 | 0.0 | 0.00 | 0.00 | 0.00 | 47 | 1020.7 |
| 20260503191257 | 69 | 285 | 2.0 | 2.0 | 0.00 | 0.00 | 0.00 | 43 | 1020.8 |
| 20260503190754 | 68 | 321 | 3.0 | 3.0 | 0.00 | 0.00 | 0.00 | 43 | 1021.0 |
| 20260503190251 | 68 | 302 | 2.0 | 2.0 | 0.00 | 0.00 | 0.00 | 43 | 1021.0 |
| 20260503185748 | 69 | 277 | 1.0 | 1.0 | 0.00 | 0.00 | 0.00 | 45 | 1021.2 |
| 20260503185244 | 67 | 243 | 5.0 | 6.0 | 0.00 | 0.00 | 0.00 | 45 | 1021.0 |
| 20260503184738 | 66 | 252 | 0.0 | 1.0 | 0.00 | 0.00 | 0.00 | 46 | 1021.0 |
| 20260503184235 | 66 | 265 | 4.0 | 5.0 | 0.00 | 0.00 | 0.00 | 45 | 1021.2 |
| 20260503183731 | 67 | 246 | 5.0 | 7.0 | 0.00 | 0.00 | 0.00 | 47 | 1021.1 |
| 20260503183229 | 67 | 276 | 0.0 | 0.0 | 0.00 | 0.00 | 0.00 | 47 | 1021.3 |
| 20260503182727 | 66 | 273 | 0.0 | 0.0 | 0.00 | 0.00 | 0.00 | 51 | 1021.3 |
| 20260503182225 | 67 | 328 | 2.0 | 3.0 | 0.00 | 0.00 | 0.00 | 44 | 1021.3 |
| 20260503181722 | 68 | 328 | 2.0 | 2.0 | 0.00 | 0.00 | 0.00 | 46 | 1021.4 |
| 20260503181219 | 67 | 278 | 2.0 | 2.0 | 0.00 | 0.00 | 0.00 | 45 | 1021.7 |
| 20260503180715 | 65 | 267 | 0.0 | 0.0 | 0.00 | 0.00 | 0.00 | 51 | 1021.7 |
| 20260503180214 | 65 | 248 | 2.0 | 2.0 | 0.00 | 0.00 | 0.00 | 47 | 1021.7 |
| 20260503175710 | 66 | 294 | 1.0 | 2.0 | 0.00 | 0.00 | 0.00 | 48 | 1022.0 |
| 20260503175208 | 66 | 166 | 1.0 | 2.0 | 0.00 | 0.00 | 0.00 | 48 | 1021.9 |
| 20260503174703 | 65 | 269 | 0.0 | 1.0 | 0.00 | 0.00 | 0.00 | 49 | 1021.9 |
| 20260503174201 | 66 | 257 | 3.0 | 3.0 | 0.00 | 0.00 | 0.00 | 47 | 1021.8 |
| 20260503173656 | 65 | 286 | 1.0 | 1.0 | 0.00 | 0.00 | 0.00 | 48 | 1021.9 |
| 20260503173152 | 64 | 209 | 8.0 | 9.0 | 0.00 | 0.00 | 0.00 | 47 | 1021.8 |
| 20260503172650 | 66 | 247 | 3.0 | 3.0 | 0.00 | 0.00 | 0.00 | 48 | 1021.8 |
| 20260503172147 | 65 | 263 | 0.0 | 0.0 | 0.00 | 0.00 | 0.00 | 53 | 1021.8 |
| 20260503171643 | 64 | 291 | 0.0 | 0.0 | 0.00 | 0.00 | 0.00 | 54 | 1021.9 |
| 20260503171141 | 64 | 268 | 1.0 | 1.0 | 0.00 | 0.00 | 0.00 | 50 | 1021.9 |
| 20260503170638 | 64 | 46 | 2.0 | 3.0 | 0.00 | 0.00 | 0.00 | 53 | 1021.9 |
| 20260503170134 | 63 | 358 | 5.0 | 7.0 | 0.00 | 0.00 | 0.00 | 48 | 1021.9 |